Regional Weather Roundup
Issued by NWS

Home | Current Version | Previous Version | Text Only | Print | Product List | Glossary On
Versions: 1 2 3 4 5 6 7 8 9 10 11 12 13 14 15 16 17 18 19 20 21 22 23 24 25 26 27 28 29 30 31 32 33 34 35 36 37 38 39 40 41 42 43 44 45 46 47 48 49 50
000
ASUS43 KLOT 290110
RWRIL

ILLINOIS REGIONAL WEATHER ROUNDUP
NATIONAL WEATHER SERVICE CHICAGO/ROMEOVILLE IL
700 PM CST SUN DEC 28 2014

NOTE: "FAIR" INDICATES FEW OR NO CLOUDS BELOW 12,000 FEET WITH NO
SIGNIFICANT WEATHER AND/OR OBSTRUCTIONS TO VISIBILITY.

* THESE STATIONS ARE NOT UNDER NWS QUALITY CONTROL. THEY ALSO MAY NOT
  REPORT WEATHER SUCH AS PRECIPITATION OR FOG.

ILZ001-002-007-009-015-016-024-290200-
NORTHWEST ILLINOIS

CITY           SKY/WX    TMP DP  RH WIND       PRES   REMARKS
MOLINE         CLEAR     25  18  74 CALM      30.20R
STERLING*      CLEAR     23  16  74 CALM      30.21R
SAVANNA*       CLEAR     26  22  84 CALM      30.21R
$$

ILZ003-004-008-010-011-017-018-290200-
NORTH CENTRAL ILLINOIS

CITY           SKY/WX    TMP DP  RH WIND       PRES   REMARKS
ROCKFORD       CLEAR     27  16  63 NW5       30.21R WCI  22
FREEPORT*      CLEAR     26  19  77 CALM      30.21R
ROCHELLE*      CLEAR     25  22  89 SW3       30.21R
DE KALB*       CLEAR     26  18  72 SW5       30.20R WCI  20
PERU*          FAIR      30  17  57 CALM      30.22R
$$

ILZ005-006-012>014-019>023-290200-
NORTHEAST ILLINOIS

CITY           SKY/WX    TMP DP  RH WIND       PRES   REMARKS
CHICAGO-OHARE  CLEAR     29  16  58 W3        30.19R
CHICAGO-MIDWAY CLEAR     30  18  60 SW6       30.20R WCI  24
AURORA         CLEAR     26  17  68 SW3       30.20R
LANSING*       CLEAR     25  18  76 CALM      30.21S
JOLIET*        CLEAR     22  18  84 CALM      30.22R
WAUKEGAN       CLEAR     22  16  78 CALM      30.18S
DUPAGE AIRPORT CLEAR     27  18  69 SW5       30.19R WCI  22
KANKAKEE*      CLEAR     24  20  85 CALM      30.22S
WHEELING       CLEAR     26  17  68 CALM      30.21R
MORRIS*        CLEAR     27  19  72 SW5       30.21S WCI  22
ROMEOVILLE*    CLEAR     25  18  72 SW6       30.21R WCI  18
NORTHERLY ISL    N/A     31  17  56 S3          N/A
$$

LMZ740>746-290200-
SOUTHERN LAKE MICHIGAN

STATION/POSITION SKY/WX   TEMP    WIND        PRES    VSBY  WAVE
                          AIR SEA DIR/SP/G                  HT/PER
                          (F)     (DEG/KT/KT) (MB)    (MI)  (FT/S)
WAUKEGAN HARBOR            30        CALM       N/A
HARRISON CRIB              33     270/  8/ 10   N/A
BURNHAM HARBOR             31     230/  4/  7   N/A
CALUMET HARBOR             30     220/  4/  6 1021.6R
MICHIGAN CITY              30     190/  8/  9   N/A
$$

ILZ025>027-034>036-040-047-049-050-058-095>099-290200-
WEST-CENTRAL ILLINOIS

CITY           SKY/WX    TMP DP  RH WIND       PRES   REMARKS
QUINCY         CLEAR     30  21  69 S6        30.20R WCI  24
GALESBURG*     CLEAR     25  20  83 CALM      30.20R
MACOMB*        CLEAR     27  24  89 CALM      30.22S
JACKSONVILLE*  CLEAR     31  23  71 SE3       30.21S
PITTSFIELD*    CLEAR     31  27  88 CALM      30.22R
$$

ILZ028>032-037-038-041>044-048-051>054-059>061-290200-
CENTRAL ILLINOIS

CITY           SKY/WX    TMP DP  RH WIND       PRES   REMARKS
PONTIAC        CLEAR     26  21  81 CALM      30.23R
BLOOMINGTON    CLEAR     26  22  85 CALM      30.22R
DECATUR        CLEAR     28  24  85 CALM      30.22S
PEORIA         CLEAR     29  17  61 S3        30.22R
LACON*         CLEAR     24  16  72 CALM      30.21R
LINCOLN*       CLEAR     28  24  86 CALM      30.24R
SPRINGFIELD    CLEAR     26  21  81 CALM      30.22S
TAYLORVILLE    CLEAR     28  27  93 CALM      30.22S
$$

ILZ033-039-045-046-055>057-062-063-290200-
EAST-CENTRAL ILLINOIS

CITY           SKY/WX    TMP DP  RH WIND       PRES   REMARKS
CHAMPAIGN      CLEAR     26  20  77 CALM      30.22R
DANVILLE*      CLEAR     25  24  93 CALM      30.19S
RANTOUL*       CLEAR     26  21  79 CALM      30.22R
MATTOON        CLEAR     26  23  88 CALM      30.21S
PARIS*         CLEAR     27  24  88 CALM      30.23S
$$

ILZ079-100>102-290200-
SOUTHWEST ILLINOIS

CITY           SKY/WX    TMP DP  RH WIND       PRES   REMARKS
BELLEVILLE     CLEAR     28  27  97 CALM      30.22S
CAHOKIA*       CLEAR     30  26  85 CALM      30.23R
SPARTA*        CLEAR     30  26  86 CALM      30.24R
$$

ILZ064>066-069>071-074>076-080>082-084>086-088>090-092>094-290200-
SOUTH-CENTRAL ILLINOIS

CITY           SKY/WX    TMP DP  RH WIND       PRES   REMARKS
CARBONDALE     CLOUDY    33  26  75 N6        30.23R WCI  28
CAIRO*         CLOUDY    37  31  80 N5        30.22R WCI  33
EFFINGHAM*     CLEAR     27  24  88 CALM      30.24R
MARION         CLOUDY    34  28  80 NE6       30.23R WCI  29
MT. VERNON     CLOUDY    30  21  69 CALM      30.23S
CENTRALIA*     CLOUDY    32  25  75 CALM      30.23R
SALEM*         MOCLDY    30  27  88 CALM      30.22S
METROPOLIS*    CLOUDY    34  32  92 N5        30.21S WCI  30
$$

ILZ067-068-072-073-078-083-087-091-290200-
SOUTHEAST ILLINOIS

CITY           SKY/WX    TMP DP  RH WIND       PRES   REMARKS
LAWRENCEVILLE  PTCLDY    29  24  82 N3        30.23S
FLORA*         PTCLDY    30  26  88 N3        30.23R
FAIRFIELD*     PTCLDY    29  27  90 CALM      30.22R
HARRISBURG*    CLOUDY    33  28  83 NE5       30.24R WCI  28
ROBINSON*      CLEAR     28  24  84 N3        30.24R
CARMI*         CLOUDY    32  31  95 CALM      30.22S
$$

ABBREVIATIONS USED IN REMARKS
   TC - TEMPERATURE IN CELSIUS
  WCI - WIND CHILL INDEX
   HX - HEAT INDEX
  VSB - VISIBILITY
$$



USA.gov is the U.S. government's official web portal to all federal, state and local government web resources and services.